Back to catalog

CZ-6A DEB

AliveSSO
NORAD 54505·DEBRIS·🇨🇳 China

Launched Nov 11, 2022 from Taiyuan Satellite Launch Center

Loading…

Next Passes (next 24 hours)

TLE

FreshSource: Space-Track

Epoch: Sep 14, 2026, 04:12 UTC

1 54505U 22151JH  26257.17508936  .00002524  00000-0  78793-3 0  9991
2 54505  98.9180 334.0765 0070155 181.3112 178.7902 14.40341597200597

Track CZ-6A DEB in real time with AllMySat

Download on the App Store